{"data":{"norad_id":68680,"intl_designator":"2026-077U","name":"STARLINK-37306","alt_names":[],"object_type":"PAYLOAD","status":"ACTIVE","operator":null,"country":"US","launch_date":"2026-04-11","launch_site_code":"AFWTR","launch_vehicle":null,"mission":null,"orbit_class":"UNKNOWN","rcs_meters":null,"size_class":null,"mass_kg":null,"dimensions":null,"purposes":["comms"],"wikipedia_slug":null,"has_3d_model":false,"image_url":null,"decayed_at":null,"tle_current":{"epoch":"2026-05-25T02:38:07.302336Z","epoch_age_seconds":65631,"freshness":"FRESH","line1":"1 68680U 26077U   26145.10980674  .00008709  00000+0  27168-3 0  9993","line2":"2 68680  97.2873  16.7468 0002096 103.1277 257.0200 15.33453549  6875","mean_motion":15.33453549,"eccentricity":0.0002096,"inclination_deg":97.2873,"raan_deg":16.7468,"arg_perigee_deg":103.1277,"mean_anomaly_deg":257.02,"bstar":0.00027168,"rev_number":687,"period_min":93.90568112996,"perigee_km":464.08330875379,"apogee_km":466.95216882028,"semimajor_km":6843.654738787,"source":"CELESTRAK","updated_at":"2026-05-25T13:38:21.995677Z"}}}